Location: Boda
(47.1872°N, 9.5454°E)
Time: 18:38:28
(UTC+00:00)

IRS-P3 - Pass Details

Date: 14 May 2021
Orbit: 813 x 819 km, 98.9° (Epoch: 15 June)

Event Time Altitude Azimuth Distance (km) Brightness Sun altitude
Rises 02:51:56 0° 11° (N) 3,360 8.2 -8.6°
Reaches altitude 10° 02:54:19 10° 8° (N) 2,422 7.3 -8.2°
Maximum altitude 02:59:35 60° 290° (WNW) 934 4.3 -7.5°
Drops below altitude 10° 03:04:48 10° 212° (SSW) 2,402 6.0 -6.8°
Enters shadow 03:05:48 - 210° (SSW) 2,792 6.3 -6.7°
